Content
SEND FEEDBACK

Daily
Averages
Monthly
Summary
United States of America

RED BLUFF, CALIFORNIA


Home > North America > United States > California
Elevation: 344 feet     Latitude: 40 09N     Longitude: 122 15W

WEATHER
 
SELECT A DAY
Number of Records: 184,996;   Date Range: 1/1/95 - 9/29/14
 
SHARE

PRINT THIS DATA

[ ← Previous Day ]
WEATHER ALMANAC - JANUARY 21, 2013
[ Next Day → ]
[ °C ]   °F
Weather ElementAverageHighLow
Temperature44.3 °F63 °F (12:54 pm)30.9 °F (1:54 am)
Dewpoint26.3 °F32 °F (6:54 pm)21 °F (1:54 pm)
Humidity54.7 %79 % (1:54 am)21 % (1:54 pm)
Barometer30.18 in30.22 in (1:54 am)30.13 in (1:54 pm)
Wind Speed6.2 mph9.2 mph (9:54 am)
Weather ElementAverage
Visibility10 mi
Wind DirectionW (264.8 °)

Weather ElementTotal
Precipitation---
Heating Degree Days18.1 (Base 65)
Averaged from 23 records on January 21, 2013
WEATHER CONDITIONS BREAKOUT
WIND DIRECTION BREAKOUT
WEATHER BY HOUR - JANUARY 21, 2013
[ °C ]   °F
Local TimeTemperatureDewpointHumidityBarometerVisibilityWind DirectionWind SpeedGust SpeedPrecipitationEventsConditions
1:54 AM30.9 °F25.0 °F79 %30.22 in10.0 miWNW (300°)6.9 mphClear
2:54 AM33.1 °F26.1 °F75 %30.22 in10.0 miNW (310°)8.1 mphClear
3:54 AM32.0 °F24.1 °F73 %30.20 in10.0 miNNW (330°)5.8 mphClear
4:54 AM30.9 °F23.0 °F72 %30.21 in10.0 miNNW (330°)3.5 mphClear
5:54 AM32.0 °F23.0 °F69 %30.19 in10.0 miNW (320°)6.9 mphClear
6:54 AM33.1 °F23.0 °F66 %30.19 in10.0 miNNW (330°)6.9 mphClear
7:54 AM33.1 °F23.0 °F66 %30.19 in10.0 miNorth (360°)5.8 mphClear
8:54 AM39.0 °F26.1 °F60 %30.20 in10.0 miNNW (340°)8.1 mphClear
9:54 AM48.9 °F26.1 °F41 %30.19 in10.0 miNorth (350°)9.2 mphClear
10:54 AM55.0 °F23.0 °F29 %30.19 in10.0 miNorth (360°)9.2 mphClear
11:54 AM59.0 °F25.0 °F27 %30.16 in10.0 miNorth (350°)4.6 mphClear
12:54 PM63.0 °F23.0 °F22 %30.14 in10.0 miENE (60°)5.8 mphClear
1:54 PM62.1 °F21.0 °F21 %30.13 in10.0 miSSE (150°)6.9 mphClear
2:54 PM62.1 °F25.0 °F24 %30.13 in10.0 miSouth (180°)6.9 mphClear
3:54 PM63.0 °F27.0 °F26 %30.14 in10.0 miSSE (150°)9.2 mphClear
4:54 PM57.0 °F30.9 °F37 %30.15 in10.0 miSSE (150°)8.1 mphClear
5:54 PM48.9 °F30.9 °F50 %30.16 in10.0 miSouth (170°)4.6 mphClear
6:54 PM44.1 °F32.0 °F63 %30.16 in10.0 miWNW (300°)3.5 mphClear
7:54 PM41.0 °F30.9 °F67 %30.17 in10.0 miCalmClear
8:54 PM39.9 °F30.0 °F68 %30.17 in10.0 miNW (320°)5.8 mphClear
9:54 PM39.0 °F30.0 °F70 %30.18 in10.0 miWNW (290°)8.1 mphClear
10:54 PM37.0 °F28.9 °F73 %30.19 in10.0 miNW (310°)4.6 mphClear
11:54 PM34.0 °F28.0 °F79 %30.18 in10.0 miNNW (330°)4.6 mphClear
Hourly data recorded from KRBL, located miles away from Red Bluff, California







STORIES FROM OUR PARTNERS